Weather History for Salina, KS

Change the Weather History Date:

Monday, May 13, 2013

  Actual Average Record
Temperature  
Mean Temperature 64 °F 64 °F  
Max Temperature 83 °F 76 °F 92 °F (1932)
Min Temperature 44 °F 53 °F 32 °F (1966)
Degree Days  
Heating Degree Days 1 3  
Month to date heating degree days 120 61  
Since 1 July heating degree days 4910 4829  
Cooling Degree Days 0 3  
Month to date cooling degree days 3 25  
Year to date cooling degree days 18 50  
Growing Degree Days 14 (Base 50)    
Moisture  
Dew Point 51 °F    
Average Humidity 63    
Maximum Humidity 86    
Minimum Humidity 40    
Precipitation  
Precipitation 0.00 in 0.15 in 2.90 in (1983)
Month to date precipitation 2.39 1.75  
Year to date precipitation 8.61 8.99  
Sea Level Pressure  
Sea Level Pressure 30.01 in    
Wind  
Wind Speed 7 mph (SSE)    
Max Wind Speed 16 mph    
Max Gust Speed 20 mph    
Visibility 10 miles    
Events      
T = Trace of Precipitation, MM = Missing Value Source: NWS Daily Summary

Daily Weather History Graph

Daily Weather History Graph

Search for Another Location

Airport:

Trip Planner

Search our weather history database for the weather conditions in past years. The results will help you decide how hot, cold, wet, or windy it might be!

Date:

Astronomy

May. 13, 2013 Rise Set
Actual Time 6:19 AM CDT 8:34 PM CDT
Civil Twilight 5:50 AM CDT 9:04 PM CDT
Nautical Twilight 5:13 AM CDT 9:41 PM CDT
Astronomical Twilight 4:33 AM CDT 10:21 PM CDT
Moon 9:07 AM CDT (5/13) 11:44 PM CDT (5/13)
Length of Visible Light 15h 14m
Length of Day
14h 14m
Waxing Crescent, 12% of the Moon is Illuminated
May 13
Waxing Crescent
May 17
First Quarter
May 24
Full
May 31
Last Quarter
Jun 8
New

Hourly Weather History & Observations

Time (CDT) Temp. Heat Index Dew Point Humidity Pressure Visibility Wind Dir Wind Speed Gust Speed Precip Events Conditions
12:53 AM 52.0 °F - 45.0 °F 77% 30.10 in 10.0 mi ESE 6.9 mph - N/A   Clear
1:53 AM 50.0 °F - 44.1 °F 80% 30.09 in 10.0 mi SE 6.9 mph - N/A   Clear
2:53 AM 50.0 °F - 44.1 °F 80% 30.07 in 10.0 mi ESE 4.6 mph - N/A   Clear
3:53 AM 48.9 °F - 43.0 °F 80% 30.05 in 10.0 mi ESE 4.6 mph - N/A   Clear
4:53 AM 48.9 °F - 43.0 °F 80% 30.06 in 10.0 mi Calm Calm - N/A   Clear
5:53 AM 48.0 °F - 42.1 °F 80% 30.05 in 10.0 mi East 3.5 mph - N/A   Clear
6:53 AM 46.0 °F - 42.1 °F 86% 30.06 in 10.0 mi Calm Calm - N/A   Clear
7:53 AM 50.0 °F - 43.0 °F 77% 30.07 in 10.0 mi ESE 5.8 mph - N/A   Clear
8:53 AM 55.0 °F - 46.0 °F 72% 30.06 in 10.0 mi SSE 5.8 mph - N/A   Clear
9:53 AM 60.1 °F - 48.0 °F 64% 30.06 in 10.0 mi South 3.5 mph - N/A   Clear
10:53 AM 64.9 °F - 50.0 °F 58% 30.06 in 10.0 mi SE 3.5 mph - N/A   Clear
11:53 AM 70.0 °F - 52.0 °F 53% 30.06 in 10.0 mi ESE 4.6 mph - N/A   Clear
12:53 PM 75.0 °F - 53.1 °F 46% 30.04 in 10.0 mi SE 10.4 mph - N/A   Clear
1:53 PM 79.0 °F - 55.9 °F 45% 30.02 in 10.0 mi SE 12.7 mph 16.1 mph N/A   Clear
3:53 PM 82.0 °F 81.7 °F 57.0 °F 42% 29.99 in 10.0 mi South 11.5 mph 18.4 mph N/A   Clear
4:53 PM 82.9 °F 82.1 °F 55.9 °F 39% 29.96 in 10.0 mi South 12.7 mph - N/A   Clear
5:53 PM 82.9 °F 82.8 °F 59.0 °F 44% 29.94 in 10.0 mi SSE 10.4 mph - N/A   Clear
6:53 PM 80.6 °F 81.1 °F 59.0 °F 48% 29.95 in 10.0 mi South 8.1 mph - N/A   Clear
7:53 PM 75.0 °F - 60.1 °F 60% 29.92 in 10.0 mi South 6.9 mph - N/A   Clear
8:53 PM 69.1 °F - 59.0 °F 70% 29.92 in 10.0 mi South 9.2 mph - N/A   Clear
9:53 PM 66.0 °F - 57.9 °F 75% 29.92 in 10.0 mi South 6.9 mph - N/A   Clear
10:53 PM 66.0 °F - 57.9 °F 75% 29.91 in 10.0 mi South 6.9 mph - N/A   Clear
11:53 PM 64.9 °F - 57.9 °F 78% 29.89 in 10.0 mi South 6.9 mph - N/A   Clear